7 * 24
多渠道服务支持
YAOGAN-43 O1H 是中国研制的一颗遥感卫星,属于遥感四十三号卫星系列。该卫星主要用于科学实验、国土资源普查、环境监测及灾害预警等领域,具备高分辨率对地观测能力。它由中国航天科技集团公司研制,并通过长征系列运载火箭发射入轨。该卫星的发射进一步提升了中国在遥感技术方面的应用水平,为国家在农业、气象、城市规划等多个领域提供数据支持。
中国
(CN)
| 数据来源 | 国际轨道数据 |
| 星历时间: | 2025-10-29T01:11:14+0800 13小时前 查看轨道信息 |
| 半长轴: | 6874.129km |
| 偏心率: | 0.0007896 |
| 轨道倾角: | 34.995° |
| 近地点辐角 | 261.637° |
| 升交点赤经 | 178.410° |
| 平近点角 | 98.345° |
| 近地点: | 490.566km |
| 远地点: | 501.422km |
| 周期: | 94.534分钟 |
| 每日圈数: | 15.23268 |